This demonstration page uses our WeatherBlox Daily Observations layout. Learn more.

Left ArrowRight Arrow

Hourly Observations for May 28, 2018

Temp ( °F °C ) Dew Point ( °F °C ) Humidity (%) Winds ( mph kmh ) Pressure ( in mb ) Visibility ( mi km ) Precip ( " mm )
12:56 am 00:56 Clear 76 24.4 56 13.3 50 50 SSW 3 6 29.87 1012 10 16 0.00 0.00
1:56 am 01:56 Clear 73 22.8 57 13.9 57 57 NW 9 15 29.91 1013 10 16 0.00 0.00
2:56 am 02:56 Clear 70 21.1 57 13.9 64 64 NNE 8 13 29.90 1012 10 16 0.00 0.00
3:56 am 03:56 Clear 68 20 57 13.9 68 68 NNE 6 9 29.88 1012 10 16 0.00 0.00
4:56 am 04:56 Clear 65 18.3 57 13.9 76 76 ENE 7 11 29.87 1012 10 16 0.00 0.00
5:56 am 05:56 Clear 65 18.3 57 13.9 76 76 E 10 17 29.88 1012 10 16 0.00 0.00
6:56 am 06:56 Sunny 66 18.9 57 13.9 73 73 ENE 14 22 29.90 1013 10 16 0.00 0.00
7:56 am 07:56 Sunny 72 22.2 59 15 64 64 E 13 20 29.90 1013 10 16 0.00 0.00
8:32 am 08:32 Partly Cloudy 73 23 61 16 65 65 E 15 24 29.83 1010 10 16 0.00 0.00
8:56 am 08:56 Mostly Sunny 76 24.4 62 16.7 62 62 E 15 24 29.88 1012 10 16 0.00 0.00
9:56 am 09:56 Mostly Sunny 79 26.1 64 17.8 60 60 E 16 26 29.89 1012 10 16 0.00 0.00
10:56 am 10:56 Sunny 81 27.2 66 18.9 61 61 ESE 6 9 29.91 1013 10 16 0.00 0.00
11:52 am 11:52 Mostly Cloudy with Nearby Thunderstorms 82 28 64 18 55 55 E 12 19 29.83 1010 10 16 0.00 0.00
11:56 am 11:56 Mostly Cloudy with Nearby Thunderstorms 83 28.3 65 18.3 55 55 ENE 12 19 29.90 1013 10 16 0.00 0.00
12:29 pm 12:29 Cloudy with Thunderstorms 75 24 63 17 65 65 NW 23 37 29.88 1012 10 16 0.00 0.00
12:36 pm 12:36 Cloudy with Thunderstorms 66 19 63 17 88 88 NW 37 59 29.94 1014 5 8 0.00 0.00
12:56 pm 12:56 Cloudy with Thunderstorms 64 17.8 62 16.7 93 93 N 32 52 29.96 1014 8 13 0.00 0.03
1:56 pm 13:56 Mostly Cloudy with Nearby Thunderstorms 65 18.3 62 16.7 90 90 NE 30 48 29.88 1012 9 14 0.04 1.02
2:41 pm 14:41 Mostly Cloudy with Nearby Thunderstorms 66 19 63 17 88 88 ENE 35 56 29.85 1011 9 14 0.00 0.00
2:49 pm 14:49 Mostly Cloudy with Nearby Thunderstorms 66 19 63 17 88 88 E 25 41 29.91 1013 8 13 0.00 0.00
2:56 pm 14:56 Mostly Cloudy with Nearby Thunderstorms 66 18.9 62 16.7 87 87 E 29 46 29.93 1013 8 13 0.00 0.00
3:11 pm 15:11 Cloudy with Nearby Thunderstorms 66 19 63 17 88 88 ESE 21 33 29.91 1013 10 16 0.00 0.00
3:24 pm 15:24 Cloudy with Light Rain 66 19 63 17 88 88 ESE 24 39 29.91 1013 10 16 0.02 0.51
3:37 pm 15:37 Cloudy with Nearby Thunderstorms 68 20 61 16 78 78 SE 24 39 29.88 1012 10 16 0.00 0.00
3:56 pm 15:56 Windy with Storms Likely 68 20 60 15.6 76 76 SE 21 33 29.93 1014 9 14 0.03 0.76
4:54 pm 16:54 Cloudy with Light Rain 64 18 61 16 88 88 E 18 30 29.94 1014 10 16 0.06 1.52
4:56 pm 16:56 Cloudy with Light Rain 65 18.3 61 16.1 87 87 E 17 28 29.98 1015 10 16 0.06 1.52
5:56 pm 17:56 Cloudy with Light Rain 65 18.3 62 16.7 90 90 S 14 22 29.96 1015 10 16 0.12 3.05
6:10 pm 18:10 Cloudy with Light Rain 64 18 63 17 94 94 S 15 24 29.94 1014 10 16 0.00 0.00
6:56 pm 18:56 Cloudy with Light Rain 64 17.8 60 15.6 87 87 SSE 18 30 29.93 1014 10 16 0.10 2.54
7:56 pm 19:56 Cloudy with Light Rain 64 17.8 59 15 84 84 SW 12 19 29.88 1012 10 16 0.05 1.27
8:56 pm 20:56 Mostly Cloudy 66 18.9 56 13.3 70 70 WSW 17 28 29.90 1013 10 16 0.02 0.51
9:56 pm 21:56 Cloudy with Light Rain 64 17.8 57 13.9 78 78 WSW 13 20 29.91 1013 10 16 0.01 0.25
10:30 pm 22:30 Cloudy with Nearby Thunderstorms 64 18 57 14 78 78 WSW 14 22 29.91 1013 10 16 0.02 0.51
10:45 pm 22:45 Cloudy with Light Rain 66 19 55 13 68 68 W 23 37 29.85 1011 10 16 0.00 0.00
10:56 pm 22:56 Cloudy with Light Rain 66 18.9 55 12.8 68 68 W 21 33 29.88 1012 10 16 0.03 0.76
11:56 pm 23:56 Cloudy with Light Rain 63 17.2 57 13.9 81 81 W 21 33 29.91 1013 10 16 0.05 1.27

Powered by AerisWeather